Location: Corralito
(10.2667°N, 66.9500°W)
Time: 19:22:37
(UTC+00:00)

ARIANE 5 DEB (SYLDA) - Pass Details

Date: 06 December 2023
Orbit: 268 x 8124 km, 6.8° (Epoch: 04 March)

Event Time Altitude Azimuth Distance (km) Brightness Sun altitude
Exits shadow 08:16:03 14° 252° (WSW) 8,634 8.4 -32.1°
Maximum altitude 08:37:30 37° 197° (SSW) 3,357 6.7 -27.2°
Drops below altitude 10° 08:45:41 10° 131° (SE) 3,225 7.6 -25.3°
Sets 08:47:47 0° 120° (ESE) 3,701 8.4 -24.8°
